This demonstration page uses our WeatherBlox Daily Observations layout. Learn more.

Left ArrowRight Arrow

41.86663, -103.66717

Hourly Observations for March 27, 2016

Temp ( °F °C ) Dew Point ( °F °C ) Humidity (%) Winds ( mph kmh ) Pressure ( in mb ) Visibility ( mi km ) Precip ( " mm )
12:53 am 00:53 Clear 18 -7.8 12 -11.1 77 77 NNE 3 6 30.23 1024 10 16 N/A
1:53 am 01:53 Clear 18 -7.8 13 -10.6 81 81 NNE 3 6 30.21 1023 10 16 N/A
2:53 am 02:53 Clear 17 -8.3 12 -11.1 80 80 N 6 9 30.19 1022 10 16 N/A
3:53 am 03:53 Clear 15 -9.4 11 -11.7 84 84 N 3 6 30.17 1022 10 16 N/A
4:53 am 04:53 Clear 15 -9.4 11 -11.7 84 84 N 3 6 30.17 1022 10 16 N/A
5:53 am 05:53 Clear 16 -8.9 12 -11.1 84 84 N 6 9 30.16 1021 10 16 N/A
6:53 am 06:53 Sunny 14 -10 10 -12.2 84 84 N N/A 30.18 1022 10 16 N/A
7:53 am 07:53 Sunny 23 -5 17 -8.3 78 78 NNW 3 6 30.18 1022 10 16 N/A
8:53 am 08:53 Sunny 31 -0.6 22 -5.6 69 69 WNW 5 7 30.17 1022 10 16 N/A
9:53 am 09:53 Sunny 42 5.6 23 -5 47 47 W 7 11 30.14 1021 10 16 N/A
10:53 am 10:53 Sunny 50 10 22 -5.6 33 33 W 13 20 30.10 1019 10 16 N/A
11:53 am 11:53 Sunny 53 11.7 17 -8.3 24 24 W 20 31 30.08 1019 10 16 N/A
12:53 pm 12:53 Sunny 56 13.3 18 -7.8 22 22 W 16 26 30.06 1018 10 16 N/A
1:53 pm 13:53 Sunny 57 13.9 15 -9.4 19 19 W 14 22 30.03 1017 10 16 N/A
2:53 pm 14:53 Sunny 58 14.4 13 -10.6 17 17 W 17 28 29.99 1016 10 16 N/A
3:53 pm 15:53 Sunny 59 15 15 -9.4 18 18 WSW 17 28 29.98 1015 10 16 N/A
4:53 pm 16:53 Sunny 59 15 13 -10.6 16 16 WSW 17 28 29.96 1015 10 16 N/A
5:53 pm 17:53 Sunny 57 13.9 12 -11.1 17 17 WSW 18 30 29.96 1015 10 16 N/A
6:53 pm 18:53 Sunny 53 11.7 15 -9.4 22 22 SW 14 22 29.98 1015 10 16 N/A
7:53 pm 19:53 Clear 48 8.9 18 -7.8 30 30 SW 9 15 29.96 1015 10 16 N/A
8:53 pm 20:53 Clear 43 6.1 21 -6.1 42 42 VRB 3 6 29.96 1015 10 16 N/A
9:53 pm 21:53 Clear 39 3.9 20 -6.7 46 46 SE 3 6 29.94 1014 10 16 N/A
10:53 pm 22:53 Clear 42 5.6 20 -6.7 41 41 SSW 3 6 29.91 1013 10 16 N/A
11:53 pm 23:53 Clear 41 5 18 -7.8 39 39 SSE 7 11 29.90 1013 10 16 N/A

Powered by AerisWeather